KF0AIT Weather Reports


Display with metric or nautical units.
time (UTC)temp
F
wind
direction
speed
MPH
gust
MPH
rain 1hr
in
rain 24hr
in
rain mn
in
humidity
%
barometer
mb
20260902083603 67 0 0.0 0.0 0.00 0.00 0.00 75 1008.1
20260902082703 67 0 0.0 0.0 0.00 0.00 0.00 75 1008.1
20260902081803 67 0 0.0 0.0 0.00 0.00 0.00 75 1008.1
20260902080903 67 0 0.0 0.0 0.00 0.00 0.00 74 1008.1
20260902080003 67 45 0.0 1.0 0.00 0.00 0.00 73 1008.1
20260902075403 67 45 0.0 1.0 0.00 0.00 0.00 73 1008.1
20260902074524 67 0 0.0 0.0 0.00 0.00 0.00 73 1008.1
20260902073603 67 0 0.0 0.0 0.00 0.00 0.00 73 1008.1
20260902072724 67 0 0.0 0.0 0.00 0.00 0.00 74 1008.1
20260902071803 67 0 0.0 0.0 0.00 0.00 0.00 74 1008.1
20260902070903 67 0 0.0 0.0 0.00 0.00 0.00 74 1008.1
20260902070003 67 0 0.0 0.0 0.00 0.00 0.00 74 1008.1
20260902065403 67 0 0.0 0.0 0.00 0.00 0.00 74 1008.1
20260902064503 67 0 0.0 0.0 0.00 0.00 0.00 74 1008.1
20260902063603 67 67 0.0 1.0 0.00 0.00 0.00 74 1007.1
20260902062703 67 67 0.0 1.0 0.00 0.00 0.00 74 1007.1
20260902061803 67 0 0.0 0.0 0.00 0.00 0.00 74 1007.1
20260902060903 67 0 0.0 0.0 0.00 0.00 0.00 74 1008.1
20260902060003 68 0 0.0 0.0 0.00 0.00 0.00 74 1008.1
20260902055424 68 0 0.0 0.0 0.00 0.00 0.00 74 1008.1
20260902054503 68 0 0.0 0.0 0.00 0.00 0.00 74 1008.1
20260902053603 68 0 0.0 0.0 0.00 0.00 0.00 75 1008.1
20260902052703 68 67 0.0 1.0 0.00 0.00 0.00 75 1008.1
20260902051824 68 0 0.0 0.0 0.00 0.00 0.00 75 1008.1
20260902050903 68 0 0.0 0.0 0.00 0.00 0.00 76 1007.1
20260902050005 68 0 0.0 0.0 0.00 0.00 0.00 76 1007.1
20260902045403 68 0 0.0 0.0 0.00 0.00 0.00 76 1008.1
20260902044503 68 67 0.0 1.0 0.00 0.00 0.00 76 1008.1
20260902043603 68 0 0.0 0.0 0.00 0.00 0.00 76 1008.1
20260902042703 68 0 0.0 0.0 0.00 0.00 0.00 76 1008.1
20260902041824 68 0 0.0 0.0 0.00 0.00 0.00 76 1008.1
20260902040924 68 0 0.0 0.0 0.00 0.00 0.00 76 1008.1
20260902040003 68 0 0.0 0.0 0.00 0.00 0.00 76 1008.1
20260902035403 68 0 0.0 0.0 0.00 0.00 0.00 76 1008.1
20260902034503 68 0 0.0 0.0 0.00 0.00 0.00 76 1008.1
20260902033603 68 67 0.0 1.0 0.00 0.00 0.00 76 1008.1
20260902032703 68 0 0.0 0.0 0.00 0.00 0.00 76 1008.1
20260902031803 68 0 0.0 0.0 0.00 0.00 0.00 76 1008.1
20260902030903 68 0 0.0 0.0 0.00 0.00 0.00 76 1008.1
20260902030003 68 90 0.0 1.0 0.00 0.00 0.00 76 1008.1
20260902025403 68 90 0.0 1.0 0.00 0.00 0.00 76 1008.1
20260902024524 68 0 0.0 0.0 0.00 0.00 0.00 77 1008.1
20260902023603 69 0 0.0 0.0 0.00 0.00 0.00 77 1008.1
20260902022703 69 0 0.0 0.0 0.00 0.00 0.00 76 1009.2
20260902021803 69 0 0.0 0.0 0.00 0.00 0.00 75 1009.2
20260902020903 69 0 0.0 0.0 0.00 0.00 0.00 75 1009.2
20260902020003 69 0 0.0 0.0 0.00 0.00 0.00 76 1009.2
20260902015403 69 22 2.0 2.0 0.00 0.00 0.00 76 1008.1
20260902014503 69 22 2.0 2.0 0.00 0.00 0.00 76 1008.1
20260902013603 69 67 0.0 1.0 0.00 0.00 0.00 74 1008.1
20260902012703 69 0 0.0 0.0 0.00 0.00 0.00 73 1008.1
20260902011803 69 0 0.0 0.0 0.00 0.00 0.00 72 1008.1
20260902010903 70 0 0.0 0.0 0.00 0.00 0.00 71 1008.1
20260902010003 70 67 0.0 1.0 0.00 0.00 0.00 71 1008.1
20260902005424 71 67 0.0 1.0 0.00 0.00 0.00 71 1008.1
20260902004503 71 0 0.0 0.0 0.00 0.00 0.00 71 1008.1
20260902003603 71 0 0.0 0.0 0.00 0.00 0.00 71 1009.2
20260902002703 72 0 0.0 0.0 0.00 0.00 0.00 69 1009.2
20260902001824 72 0 0.0 0.0 0.00 0.00 0.00 69 1009.2
20260902000903 72 0 0.0 0.0 0.00 0.00 0.00 68 1008.1
20260902000004 72 67 0.0 2.0 0.00 0.00 0.00 68 1008.1
20260901235424 72 67 1.0 2.0 0.00 0.00 0.00 68 1009.2
20260901234503 73 45 0.0 1.0 0.00 0.00 0.00 67 1009.2
20260901233624 74 0 0.0 0.0 0.00 0.00 0.00 63 1009.2
20260901232703 74 14 0.0 2.0 0.00 0.00 0.00 63 1009.2
20260901231803 74 0 0.0 0.0 0.00 0.00 0.00 62 1009.2
20260901230903 74 0 0.0 0.0 0.00 0.00 0.00 62 1009.2
20260901230004 74 0 0.0 0.0 0.00 0.00 0.00 61 1009.2
20260901225424 75 45 0.0 1.0 0.00 0.00 0.00 61 1009.2
20260901224503 75 349 1.0 3.0 0.00 0.00 0.00 60 1009.2
20260901223603 75 278 0.0 3.0 0.00 0.00 0.00 60 1009.2
20260901222703 76 0 0.0 0.0 0.00 0.00 0.00 61 1009.2
20260901221803 76 270 0.0 1.0 0.00 0.00 0.00 59 1009.2
20260901220903 76 270 0.0 1.0 0.00 0.00 0.00 59 1009.2
20260901220003 76 0 0.0 0.0 0.00 0.00 0.00 59 1009.2
20260901215403 76 0 0.0 0.0 0.00 0.00 0.00 59 1009.2
20260901214524 76 0 0.0 0.0 0.00 0.00 0.00 59 1009.2
20260901213624 76 45 0.0 1.0 0.00 0.00 0.00 58 1009.2
20260901212724 76 0 0.0 0.0 0.00 0.00 0.00 58 1009.2
20260901211824 76 0 0.0 0.0 0.00 0.00 0.00 58 1009.2
20260901210903 76 45 0.0 1.0 0.00 0.00 0.00 58 1009.2
20260901210003 77 0 0.0 0.0 0.00 0.00 0.00 58 1009.2
20260901205424 77 337 0.0 1.0 0.00 0.00 0.00 57 1009.2
20260901204503 77 0 0.0 0.0 0.00 0.00 0.00 57 1009.2
20260901203603 78 0 0.0 0.0 0.00 0.00 0.00 57 1009.2
20260901202724 78 0 0.0 0.0 0.00 0.00 0.00 56 1009.2
20260901201803 78 0 0.0 0.0 0.00 0.00 0.00 57 1009.2
20260901200903 78 45 0.0 1.0 0.00 0.00 0.00 57 1009.2
20260901200003 78 0 0.0 0.0 0.00 0.00 0.00 58 1009.2
20260901195403 78 315 0.0 1.0 0.00 0.00 0.00 59 1009.2
20260901194503 77 59 0.0 2.0 0.00 0.00 0.00 59 1009.2
20260901193603 76 0 0.0 0.0 0.00 0.00 0.00 60 1009.2
20260901192703 76 0 0.0 0.0 0.00 0.00 0.00 60 1009.2
20260901191803 76 0 0.0 0.0 0.00 0.00 0.00 61 1009.2
20260901190903 76 0 0.0 0.0 0.00 0.00 0.00 60 1009.2
20260901190024 76 0 0.0 0.0 0.00 0.00 0.00 59 1009.2
20260901185424 76 0 0.0 0.0 0.00 0.00 0.00 59 1009.2
20260901184503 76 0 0.0 0.0 0.00 0.00 0.00 59 1009.2
20260901183603 76 0 0.0 0.0 0.00 0.00 0.00 59 1010.2
20260901182703 76 0 0.0 0.0 0.00 0.00 0.00 60 1010.2
20260901181803 76 0 0.0 0.0 0.00 0.00 0.00 60 1010.2
20260901180903 76 0 0.0 0.0 0.00 0.00 0.00 60 1010.2
20260901180004 75 0 0.0 0.0 0.00 0.00 0.00 60 1010.2
20260901175403 75 0 0.0 0.0 0.00 0.00 0.00 61 1010.2
20260901174524 75 0 0.0 0.0 0.00 0.00 0.00 60 1010.2
20260901173603 75 0 0.0 0.0 0.00 0.00 0.00 60 1010.2
20260901172703 75 45 0.0 1.0 0.00 0.00 0.00 61 1010.2
20260901171803 75 45 0.0 1.0 0.00 0.00 0.00 58 1010.2
20260901170903 76 0 0.0 0.0 0.00 0.00 0.00 59 1011.3
20260901170003 75 0 0.0 0.0 0.00 0.00 0.00 59 1011.3
20260901165424 75 0 0.0 0.0 0.00 0.00 0.00 59 1010.2
20260901164503 75 67 0.0 1.0 0.00 0.00 0.00 59 1010.2
20260901163624 74 50 1.0 3.0 0.00 0.00 0.00 59 1010.2
20260901162703 74 43 0.0 3.0 0.00 0.00 0.00 62 1011.3
20260901161803 74 0 0.0 0.0 0.00 0.00 0.00 65 1011.3
20260901160903 73 0 0.0 0.0 0.00 0.00 0.00 65 1011.3
20260901160004 73 0 0.0 0.0 0.00 0.00 0.00 66 1011.3
20260901155403 73 0 0.0 0.0 0.00 0.00 0.00 66 1011.3
20260901154503 72 0 0.0 0.0 0.00 0.00 0.00 66 1011.3
20260901153603 72 0 0.0 0.0 0.00 0.00 0.00 66 1011.3
20260901152703 71 0 0.0 0.0 0.00 0.00 0.00 67 1011.3
20260901151803 71 0 0.0 0.0 0.00 0.00 0.00 68 1011.3
20260901150924 71 0 0.0 0.0 0.00 0.00 0.00 69 1011.3
20260901150004 70 0 0.0 0.0 0.00 0.00 0.00 71 1011.3
20260901145403 70 0 0.0 0.0 0.00 0.00 0.00 71 1011.3
20260901144503 69 0 0.0 0.0 0.00 0.00 0.00 72 1011.3
20260901143624 69 0 0.0 0.0 0.00 0.00 0.00 72 1011.3
20260901142703 69 0 0.0 0.0 0.00 0.00 0.00 73 1011.3
20260901141803 69 0 0.0 0.0 0.00 0.00 0.00 75 1011.3
20260901140909 68 45 0.0 1.0 0.00 0.00 0.00 78 1011.3
20260901140004 68 45 0.0 1.0 0.00 0.00 0.00 78 1011.3
20260901135403 67 0 0.0 0.0 0.00 0.00 0.00 78 1011.3
20260901134504 67 0 0.0 0.0 0.00 0.00 0.00 78 1011.3
20260901133624 67 0 0.0 0.0 0.00 0.00 0.00 78 1012.3
20260901132703 67 0 0.0 0.0 0.00 0.00 0.00 78 1012.3
20260901131803 66 0 0.0 0.0 0.00 0.00 0.00 79 1012.3
20260901130924 66 0 0.0 0.0 0.00 0.00 0.00 78 1012.3
20260901130004 65 0 0.0 0.0 0.00 0.00 0.00 78 1012.3
20260901125403 65 0 0.0 0.0 0.00 0.00 0.00 78 1012.3
20260901124503 65 0 0.0 0.0 0.00 0.00 0.00 77 1012.3
20260901123603 64 0 0.0 0.0 0.00 0.00 0.00 77 1011.3
20260901122703 64 0 0.0 0.0 0.00 0.00 0.00 78 1011.3
20260901121803 64 0 0.0 0.0 0.00 0.00 0.00 77 1011.3
20260901120924 64 0 0.0 0.0 0.00 0.00 0.00 77 1011.3
20260901120003 63 0 0.0 0.0 0.00 0.00 0.00 77 1011.3
20260901115403 63 0 0.0 0.0 0.00 0.00 0.00 77 1011.3
20260901114503 63 0 0.0 0.0 0.00 0.00 0.00 77 1011.3
20260901113603 63 0 0.0 0.0 0.00 0.00 0.00 77 1011.3
20260901112703 63 0 0.0 0.0 0.00 0.00 0.00 77 1011.3
20260901111803 64 0 0.0 0.0 0.00 0.00 0.00 80 1011.3
20260901110903 64 0 0.0 0.0 0.00 0.00 0.00 80 1011.3
20260901110024 64 0 0.0 0.0 0.00 0.00 0.00 78 1011.3
20260901105403 64 0 0.0 0.0 0.00 0.00 0.00 78 1010.2
20260901104503 64 0 0.0 0.0 0.00 0.00 0.00 78 1010.2
20260901103624 64 0 0.0 0.0 0.00 0.00 0.00 77 1010.2
20260901102704 64 0 0.0 0.0 0.00 0.00 0.00 77 1010.2
20260901101824 64 0 0.0 0.0 0.00 0.00 0.00 76 1010.2
20260901100903 65 0 0.0 0.0 0.00 0.00 0.00 75 1010.2
20260901100003 65 0 0.0 0.0 0.00 0.00 0.00 75 1010.2
20260901095403 65 0 0.0 0.0 0.00 0.00 0.00 74 1009.2
20260901094503 65 0 0.0 0.0 0.00 0.00 0.00 74 1009.2
20260901093603 66 0 0.0 0.0 0.00 0.00 0.00 74 1009.2
20260901092703 66 0 0.0 0.0 0.00 0.00 0.00 74 1009.2
20260901091824 66 0 0.0 0.0 0.00 0.00 0.00 74 1009.2
20260901090903 66 0 0.0 0.0 0.00 0.00 0.00 74 1009.2
20260901090003 66 0 0.0 0.0 0.00 0.00 0.00 74 1009.2
20260901085403 66 0 0.0 0.0 0.00 0.00 0.00 74 1009.2
20260901084503 66 0 0.0 0.0 0.00 0.00 0.00 74 1009.2